Regional Weather Roundup
Issued by NWS

Home | Current Version | Previous Version | Text Only | Print | Product List | Glossary Off
Versions: 1 2 3 4 5 6 7 8 9 10 11 12 13 14 15 16 17 18 19 20 21 22 23 24 25 26 27 28 29 30 31 32 33 34 35 36 37 38 39 40 41 42 43 44 45 46 47 48 49 50

306
ASUS43 KLMK 252002
RWRKY
KENTUCKY REGIONAL WEATHER ROUNDUP
NATIONAL WEATHER SERVICE LOUISVILLE KY
400 PM EDT TUE APR 25 2017

NOTE "FAIR" INDICATES FEW OR NO CLOUDS BELOW 12,000 FEET
WITH NO SIGNIFICANT WEATHER AND/OR OBSTRUCTIONS TO VISIBILITY.

KYZ001>023-026-027-061>063-070>075-252100-
WESTERN AND SOUTH CENTRAL KENTUCKY

CITY           SKY/WX    TMP DP  RH WIND       PRES   REMARKS
PADUCAH        SUNNY     78  52  40 S9        29.65F
HENDERSON      SUNNY     78  56  46 SE8G20    29.68F
OWENSBORO      SUNNY     77  57  50 S9        29.69F
HOPKINSVILLE   SUNNY     75  55  50 S8        29.70F
BOWLING GREEN  MOSUNNY   76  58  53 VRB5      29.73F
GLASGOW        NOT AVBL
$$

KYZ024-025-028>034-038-045-046-053-252100-
NORTH CENTRAL KENTUCKY

CITY           SKY/WX    TMP DP  RH WIND       PRES   REMARKS
LOUISVILLE/SDF PTSUNNY   75  55  49 SW6       29.71F
LOUISVILLE/LOU SUNNY     75  56  51 E6        29.72F
FORT KNOX      PTSUNNY   73  56  53 CALM      29.71F
$$

KYZ035>037-039>044-047>052-055>060-089>105-252100-
NORTHEAST KENTUCKY

CITY           SKY/WX    TMP DP  RH WIND       PRES   REMARKS
LEXINGTON      PTSUNNY   71  55  56 S5        29.74F
COVINGTON      PTSUNNY   74  58  57 S6        29.72F
FRANKFORT      PTSUNNY   72  54  53 CALM      29.72F
$$

KYZ054-064>069-076>088-106>120-252100-
SOUTHEAST KENTUCKY

CITY           SKY/WX    TMP DP  RH WIND       PRES   REMARKS
JACKSON        PTSUNNY   71  55  56 W5        29.74F
LONDON         CLOUDY    73  53  49 VRB3      29.74F
SOMERSET       CLOUDY    68  52  56 W7        29.77S
MIDDLESBORO    CLOUDY    71  56  59 CALM      29.75S
MONTICELLO     CLOUDY    71  56  58 W10       29.77F
$$





USA.gov is the U.S. government's official web portal to all federal, state and local government web resources and services.